logo
Rechercher aéroport 
image banner adimage banner adimage banner ad
image banner ad

O21 - Hoopa

Situé à Hoopa, United States

ICAO - O21, IATA -

Données fournies par Airmate  

Information générale

Coordonnées: N41°2'29" W123°40'4"
Élévation : 356 feet MSL.
Variation magnétique : 17° East
Voir autres Aéroports à California

Données opérationnelles

Special qualification required
Heure actuelle UTC:
Heure actuelle locale:
Météo à : KACV - Arcata ( 38 km )
METAR: KACV 281253Z AUTO 08005KT 10SM OVC047 13/11 A3001 RMK AO2 SLP167 T01280111
TAF: KACV 281128Z 2812/2912 10003KT P6SM VCSH BKN060 FM281500 12004KT 4SM -RA BKN015 FM281900 28007KT 6SM BR VCSH SCT007 BKN012 FM282300 31008KT P6SM FEW008 BKN015 FM290400 25003KT 5SM BR BKN012
Voir NOTAMs / SUP AIP / TFR affectant cet aéroport [VIEW]
Fréquences de communication: [VIEW]

Pistes:

Identifiant RWYQFULongueur (ft)Largeur (ft)SurfaceLDA (ft)
14232550ASPH
32232550ASPH

Coordonnées de l'aéroport

Adresse: Hoopa United States

Vue satellite de O21